Skip Page Navigation
NASA JPL Caltech
NASA Logo - Jet Propulsion Laboratory + View the NASA Portal
+ Near-Earth Object (NEO) Program
Search JPL
JPL Home Earth Solar System Stars & Galaxies Technology
JPL Solar System Dynamics
BODIES ORBITS EPHEMERIDES TOOLS PHYSICAL DATA DISCOVERY FAQ SITE MAP
JPL Small-Body Database Browser
Search: [ help ]  
4641 Ayako (1990 QT3)
Classification: Main-belt Asteroid          SPK-ID: 2004641
Ephemeris | Orbit Diagram | Orbital Elements | Physical Parameters | Discovery Circumstances | Close-Approach Data ]

[ show orbit diagram ]
Orbital Elements at Epoch 2457000.5 (2014-Dec-09.0) TDB
Reference: JPL 11 (heliocentric ecliptic J2000)
 Element Value Uncertainty (1-sigma)   Units 
e .1716700693028111 4.4599e-08  
a 2.188589065815784 9.758e-09 AU
q 1.812873829211814 9.5312e-08 AU
i 1.652329426342686 5.4852e-06 deg
node 101.9676225039142 0.00015893 deg
peri 283.9611936878892 0.00015994 deg
M 147.3069131308018 1.7469e-05 deg
tp 2456516.589113334578
(2013-Aug-12.08911333)
5.6376e-05 JED
period 1182.61876172005
3.24
7.9092e-06
2.165e-08
d
yr
n .3044091736515332 2.0359e-09 deg/d
Q 2.564304302419755 1.1433e-08 AU
  Orbit Determination Parameters
   # obs. used (total)      1198  
   data-arc span      19142 days (52.41 yr)  
   first obs. used      1961-10-18  
   last obs. used      2014-03-16  
   planetary ephem.      DE431  
   SB-pert. ephem.      SB431-BIG16  
   condition code      0  
   fit RMS      .51109  
   data source      ORB  
   producer      Otto Matic  
   solution date      2014-Jun-09 18:04:01  

Additional Information
 Earth MOID = .817657 AU 
 T_jup = 3.655 
[ show covariance matrix ]

Ephemeris | Orbit Diagram | Orbital Elements | Physical Parameters | Discovery Circumstances | Close-Approach Data ]

Physical Parameter Table
Parameter Symbol Value Units Sigma Reference Notes
absolute magnitude H 13.9 mag n/a MPO279563  
rotation period rot_per 5.3126 h n/a Asteroid Lightcurve DataBase (Rev. 2014-Mar-01) Published Reference List:
[Pravec, P.; Wolf, M.; Sarounova, L. (2013) http://www.asu.cas.cz/~ppravec/neo.htm]

4641 Ayako           Discovered 1990 Aug. 30 by K. Endate and K. Watanabe at Kitami.
Ayako Endate (b.~1971) is the wife of the first discoverer of this minor planet.
NOTE: some special characters may not display properly (any characters within {} are an attempt to place the proper accent above a character)
Reference: 20110218/MPCPages.arcLast Updated: 2011-02-22

[ show close-approach data ]
Alternate Designations
 1990 QT3 = 1935 SH1 = 1961 UK = 1976 GZ1 = 1977 RX1 = 1984 YO5 = 1984 YR6 = 1987 UU9 
Ephemeris | Orbit Diagram | Orbital Elements | Physical Parameters | Discovery Circumstances | Close-Approach Data ]
ABOUT SSD CREDITS/AWARDS PRIVACY/COPYRIGHT GLOSSARY LINKS
FirstGov 2014-Oct-25 04:10 UT
(server date/time)  
NASA Home Page
Site Manager:   Donald K. Yeomans
Webmaster  Alan B. Chamberlin